Regional Weather Roundup
Issued by NWS

Home | Current Version | Previous Version | Graphics & Text | Print | Product List | Glossary On
Versions: 1 2 3 4 5 6 7 8 9 10 11 12 13 14 15 16 17 18 19 20 21 22 23 24 25 26 27 28 29 30 31 32 33 34 35 36 37 38 39 40 41 42 43 44 45 46 47 48 49 50
000
ASUS43 KLOT 311510
RWRIL

ILLINOIS REGIONAL WEATHER ROUNDUP
NATIONAL WEATHER SERVICE CHICAGO/ROMEOVILLE IL
1000 AM CDT FRI OCT 31 2014

NOTE: "FAIR" INDICATES FEW OR NO CLOUDS BELOW 12,000 FEET WITH NO
SIGNIFICANT WEATHER AND/OR OBSTRUCTIONS TO VISIBILITY.

* THESE STATIONS ARE NOT UNDER NWS QUALITY CONTROL. THEY ALSO MAY NOT
  REPORT WEATHER SUCH AS PRECIPITATION OR FOG.

ILZ001-002-007-009-015-016-024-311600-
NORTHWEST ILLINOIS

CITY           SKY/WX    TMP DP  RH WIND       PRES   REMARKS
MOLINE         SUNNY     37  22  54 N16G28    30.31R WCI  28
STERLING*      MOSUNNY   39  23  52 N20G28    30.26S WCI  30
SAVANNA*       SUNNY     39  20  47 N21G29    30.30R WCI  29
$$

ILZ003-004-008-010-011-017-018-311600-
NORTH CENTRAL ILLINOIS

CITY           SKY/WX    TMP DP  RH WIND       PRES   REMARKS
ROCKFORD       PTSUNNY   38  22  52 N25G40    30.25R WCI  27
FREEPORT*      MOSUNNY   35  21  57 N21G35    30.28R WCI  24
ROCHELLE*      CLOUDY    37  24  59 N30G39    30.23R WCI  24
DE KALB*       PTSUNNY   36  24  62 N28G36    30.19S WCI  23
PERU*          PTSUNNY   40  24  52 N28G41    30.22S
$$

ILZ005-006-012>014-019>023-311600-
NORTHEAST ILLINOIS

CITY           SKY/WX    TMP DP  RH WIND       PRES   REMARKS
CHICAGO-OHARE  PTSUNNY   39  28  64 N26G35    30.12R WCI  28
CHICAGO-MIDWAY PTSUNNY   40  27  59 N29G46    30.10F
AURORA         MOSUNNY   38  26  62 N25G41    30.17R WCI  27
LANSING*       CLOUDY    39  29  69 NW21G36   30.08S WCI  29
JOLIET*        CLOUDY    38  28  67 N16G30    30.15R WCI  30
WAUKEGAN       CLOUDY    36  27  69 NW16G30   30.13R WCI  26
DUPAGE AIRPORT CLOUDY    38  27  64 N26G39    30.15R WCI  26
KANKAKEE*      CLOUDY    38  31  75 NW21G31   30.12S WCI  28
WHEELING       CLOUDY    39  27  62 N24G44    30.15R WCI  28
MORRIS*        PTSUNNY   39  30  68 N14G29    30.15F WCI  31
ROMEOVILLE*    CLOUDY    38  27  63 N20G33    30.13S WCI  29
NORTHERLY ISL    N/A     39  29  67 NW20        N/A  WCI  29
$$

LMZ740>746-311600-
SOUTHERN LAKE MICHIGAN

STATION/POSITION SKY/WX   TEMP    WIND        PRES    VSBY  WAVE
                          AIR SEA DIR/SP/G                  HT/PER
                          (F)     (DEG/KT/KT) (MB)    (MI)  (FT/S)
SOUTHERN BUOY              39 52  330/ 39/ 50 1015.9F        17/ 9
WAUKEGAN HARBOR            36     340/ 28/ 37   N/A
HARRISON CRIB              39     330/ 36/ 45   N/A
BURNHAM HARBOR             38     340/ 22/ 24   N/A
CALUMET HARBOR             39     310/ 13/ 19 1017.6R
MICHIGAN CITY              41     330/ 47/ 55   N/A
$$

ILZ025>027-034>036-040-047-049-050-058-095>099-311600-
WEST-CENTRAL ILLINOIS

CITY           SKY/WX    TMP DP  RH WIND       PRES   REMARKS
QUINCY         SUNNY     36  21  54 N22G31    30.34R WCI  25
GALESBURG*     MOSUNNY   36  25  64 N20G29    30.30R WCI  25
MACOMB*        SUNNY     36  23  59 N20G31    30.33S WCI  25
JACKSONVILLE*  MOSUNNY   39  24  54 N24G31    30.28R WCI  29
PITTSFIELD*    SUNNY     38  23  55 N17G25    30.32R WCI  28
$$

ILZ028>032-037-038-041>044-048-051>054-059>061-311600-
CENTRAL ILLINOIS

CITY           SKY/WX    TMP DP  RH WIND       PRES   REMARKS
PONTIAC        CLOUDY    39  30  70 N25G35    30.18S WCI  28
BLOOMINGTON    CLOUDY    37  30  75 N21G32    30.19R WCI  27
DECATUR        PTSUNNY   38  27  64 N20G33    30.19S WCI  28
PEORIA         CLOUDY    39  24  55 N17G31    30.24S WCI  30
LACON*         PTSUNNY   39  25  57 N18G28    30.23R WCI  29
LINCOLN*       CLOUDY    38  28  65 N16G23    30.22S WCI  30
SPRINGFIELD    CLOUDY    39  24  55 N18G36    30.25R WCI  30
TAYLORVILLE    MOSUNNY   37  27  65 N30G37    30.22S WCI  25
$$

ILZ033-039-045-046-055>057-062-063-311600-
EAST-CENTRAL ILLINOIS

CITY           SKY/WX    TMP DP  RH WIND       PRES   REMARKS
CHAMPAIGN      CLOUDY    37  27  67 NW29G35   30.14R WCI  25
DANVILLE*      CLOUDY    38  29  72 NW21G28   30.07S WCI  27
RANTOUL*       CLOUDY    39  29  68 N18G28    30.13S WCI  30
MATTOON        CLOUDY    37  26  64 NW29G36   30.14R WCI  25
PARIS*         CLOUDY    39  32  76 NW22G28   30.11R WCI  28
$$

ILZ079-100>102-311600-
SOUTHWEST ILLINOIS

CITY           SKY/WX    TMP DP  RH WIND       PRES   REMARKS
ALTON          MOSUNNY   41  19  42 N18G29    30.25R
BELLEVILLE     PTSUNNY   43  31  61 N13G25    30.22R
CAHOKIA*       CLOUDY    42  27  55 N25G36    30.26R
SPARTA*        CLOUDY    45  34  65 NW13G26   30.21R
$$

ILZ064>066-069>071-074>076-080>082-084>086-088>090-092>094-311600-
SOUTH-CENTRAL ILLINOIS

CITY           SKY/WX    TMP DP  RH WIND       PRES   REMARKS
CARBONDALE     CLOUDY    46  34  62 N22G32    30.17R
CAIRO*         MOSUNNY   53  43  68 N20G26    30.14R
EFFINGHAM*     CLOUDY    40  24  51 N23G38    30.17R
MARION         CLOUDY    50  43  76 N12G21    30.15S
MT. VERNON     PTSUNNY   45  28  53 N8G22     30.17R
CENTRALIA*     PTSUNNY   44  27  52 N23G31    30.18R
SALEM*         MOSUNNY   46  31  57 NW21G37   30.18S
METROPOLIS*    CLOUDY    51  45  80 N15G23    30.11S
$$

ILZ067-068-072-073-078-083-087-091-311600-
SOUTHEAST ILLINOIS

CITY           SKY/WX    TMP DP  RH WIND       PRES   REMARKS
LAWRENCEVILLE  CLOUDY    44  36  73 NW21      30.10R
FLORA*         MOSUNNY   42  32  67 NW21G29   30.15R
FAIRFIELD*     CLOUDY    44  31  60 N15G28    30.13S
HARRISBURG*    CLOUDY    48  42  79 NW10G21   30.14S
ROBINSON*      DRIZZLE   44  39  83 NW17G25   30.11S
CARMI*         CLOUDY    46  41  82 N21G37    30.12R
$$

ABBREVIATIONS USED IN REMARKS
   TC - TEMPERATURE IN CELSIUS
  WCI - WIND CHILL INDEX
   HX - HEAT INDEX
  VSB - VISIBILITY
$$




USA.gov is the U.S. government's official web portal to all federal, state and local government web resources and services.